This is the latest recevied weather packets stored in our database for station/object SQ5OUZ-8. If no packets are shown the sender has not sent any weather packets the latest 10 day(s).
| Time | Temp. | Humidity | Pressure | Rain* | Wind** | Luminosity | Snow |
|---|---|---|---|---|---|---|---|
| 1777428862 | 2.22° C | 54% | 1027 hPa | - | - | - | - |
| 1777427888 | 2.22° C | 53% | 1027 hPa | - | - | - | - |
| 1777426756 | 2.78° C | 51% | 1027 hPa | - | - | - | - |
| 1777425675 | 3.89° C | 48% | 1027 hPa | - | - | - | - |
| 1777424626 | 3.89° C | 47% | 1027 hPa | - | - | - | - |
| 1777423460 | 5° C | 46% | 1026 hPa | - | - | - | - |
| 1777422293 | 5.56° C | 48% | 1026 hPa | - | - | - | - |
| 1777421222 | 6.11° C | 46% | 1026 hPa | - | - | - | - |
| 1777420110 | 6.67° C | 47% | 1026 hPa | - | - | - | - |
| 1777418935 | 6.67° C | 46% | 1026 hPa | - | - | - | - |
| 1777417832 | 6.67° C | 45% | 1026 hPa | - | - | - | - |
| 1777416814 | 7.22° C | 46% | 1026 hPa | - | - | - | - |
| 1777415817 | 6.67° C | 47% | 1026 hPa | - | - | - | - |
| 1777414627 | 6.67° C | 47% | 1026 hPa | - | - | - | - |
| 1777413477 | 6.67° C | 47% | 1026 hPa | - | - | - | - |
| 1777412475 | 6.67° C | 47% | 1026 hPa | - | - | - | - |
| 1777411314 | 7.22° C | 46% | 1026 hPa | - | - | - | - |
| 1777410239 | 7.22° C | 45% | 1026 hPa | - | - | - | - |
| 1777409258 | 7.78° C | 44% | 1026 hPa | - | - | - | - |
| 1777408282 | 7.78° C | 42% | 1026 hPa | - | - | - | - |
| 1777407259 | 7.78° C | 41% | 1026 hPa | - | - | - | - |
| 1777406113 | 7.78° C | 40% | 1026 hPa | - | - | - | - |
| 1777405119 | 8.33° C | 40% | 1025 hPa | - | - | - | - |
| 1777403977 | 8.33° C | 41% | 1025 hPa | - | - | - | - |
| 1777402867 | 8.33° C | 39% | 1025 hPa | - | - | - | - |
* Rain since midnight (hover to see other rain measurements)
** Current wind speed in m/s (hover to see current wind gust speed)